Simultaneous Nadir Overpasses (SNOs) Predictions

Prediction of SNOs between METOP-A and TERRA Satellite Orbit:

Table of predicted SNOs for the next 14.0 days since TLE Epoch: 4/2/2016
Index Date (METOP-A) Time (METOP-A) Lat,Lon (METOP-A) SZA (METOP-A ) Date (TERRA) Time (TERRA) Lat,Lon (TERRA) SZA (TERRA ) Distance(km) Time Diff (sec)
1 04/04/2016 06:02:58 -81.31, -43.30 101.82 04/04/2016 06:03:44 -81.32, -43.28 101.79 0.76 46
2 04/04/2016 06:53:37 81.32, 124.54 78.24 04/04/2016 06:53:10 81.32, 124.43 78.21 2.04 27
3 04/07/2016 01:37:22 -81.31, 23.07 102.86 04/07/2016 01:38:00 -81.31, 22.96 102.85 1.90 38
4 04/07/2016 02:28:02 81.31,-169.50 77.15 04/07/2016 02:27:26 81.31,-169.37 77.14 2.28 36
5 04/09/2016 21:11:45 -81.31, 89.41 103.88 04/09/2016 21:12:14 -81.31, 89.54 103.85 2.16 29
6 04/09/2016 22:02:24 81.31,-102.79 76.16 04/09/2016 22:01:40 81.31,-102.83 76.14 0.69 44
7 04/12/2016 16:46:08 -81.31, 156.12 104.85 04/12/2016 16:46:29 -81.32, 156.07 104.84 1.08 21
8 04/12/2016 17:36:48 81.31, -36.48 75.15 04/12/2016 17:35:55 81.32, -36.32 75.14 2.69 53
9 04/15/2016 12:20:32 -81.31,-137.58 105.85 04/15/2016 12:20:44 -81.32,-137.43 105.82 2.72 12




NCC Satellite Simultaneous Nadir Overpasses (SNOs) Prediction Service
